This demonstration page uses our WeatherBlox Daily Observations layout. Learn more.

Left ArrowRight Arrow

39.01783, -85.05884

Hourly Observations for July 28, 2018

Temp ( °F °C ) Dew Point ( °F °C ) Humidity (%) Winds ( mph kmh ) Pressure ( in mb ) Visibility ( mi km ) Precip ( " mm )
12:52 am 00:52 Mostly Clear 65 18.3 60 15.6 84 84 W 5 7 30.07 1018 10 16 0.00 0.00
1:52 am 01:52 Clear 66 18.9 60 15.6 81 81 NW 7 11 30.06 1018 10 16 0.00 0.00
2:52 am 02:52 Clear 60 15.6 59 15 96 96 Calm 30.06 1018 10 16 0.00 0.00
3:52 am 03:52 Clear 64 17.8 61 16.1 90 90 NNW 5 7 30.07 1018 10 16 0.00 0.00
4:52 am 04:52 Clear 64 17.8 61 16.1 90 90 NNW 6 9 30.07 1018 10 16 0.00 0.00
5:52 am 05:52 Partly Cloudy 63 17.2 61 16.1 93 93 Calm 30.08 1019 10 16 0.00 0.00
6:52 am 06:52 Mostly Sunny 63 17.2 62 16.7 97 97 N 5 7 30.08 1019 10 16 0.00 0.00
7:52 am 07:52 Partly Cloudy 62 16.7 61 16.1 96 96 Calm 30.10 1019 10 16 0.00 0.00
8:52 am 08:52 Partly Cloudy 71 21.7 60 15.6 68 68 ENE 3 6 30.12 1020 10 16 0.00 0.00
9:52 am 09:52 Mostly Cloudy 73 22.8 55 12.8 53 53 VRB 3 6 30.14 1021 10 16 0.00 0.00
10:52 am 10:52 Mostly Cloudy 75 23.9 57 13.9 54 54 VRB 3 6 30.13 1020 10 16 0.00 0.00
11:52 am 11:52 Mostly Cloudy 75 23.9 57 13.9 54 54 Calm 30.13 1020 10 16 0.00 0.00
12:52 pm 12:52 Partly Cloudy 77 25 57 13.9 50 50 NNW 5 7 30.11 1020 10 16 0.00 0.00
1:52 pm 13:52 Partly Cloudy 80 26.7 58 14.4 47 47 WSW 6 9 30.11 1020 10 16 0.00 0.00
2:52 pm 14:52 Partly Cloudy 80 26.7 57 13.9 45 45 WSW 8 13 30.11 1020 10 16 0.00 0.00
3:52 pm 15:52 Mostly Cloudy 79 26.1 56 13.3 45 45 W 6 9 30.11 1020 10 16 0.00 0.00
4:52 pm 16:52 Mostly Cloudy 80 26.7 58 14.4 47 47 NNW 10 17 30.09 1019 10 16 0.00 0.00
5:52 pm 17:52 Partly Cloudy 81 27.2 59 15 47 47 WNW 6 9 30.09 1019 10 16 0.00 0.00
6:52 pm 18:52 Partly Cloudy 79 26.1 59 15 50 50 W 7 11 30.08 1019 10 16 0.00 0.00
7:52 pm 19:52 Partly Cloudy 77 25 59 15 54 54 W 6 9 30.07 1018 10 16 0.00 0.00
8:52 pm 20:52 Partly Cloudy 74 23.3 59 15 60 60 W 3 6 30.08 1019 10 16 0.00 0.00
9:52 pm 21:52 Partly Cloudy 70 21.1 59 15 68 68 W 6 9 30.09 1019 10 16 0.00 0.00
10:52 pm 22:52 Partly Cloudy 69 20.6 60 15.6 73 73 Calm 30.11 1020 10 16 0.00 0.00
11:52 pm 23:52 Partly Cloudy 68 20 59 15 73 73 Calm 30.10 1019 10 16 0.00 0.00

Powered by AerisWeather